Захарково

Россия / Томская область     57°51′43″N   86°20′20″E
темп.,
°C
ветер,
м/с
пор.,
м/с
влажн.,
%
обл.,
%
осадки,
мм/ч
давл.,
гПа
погр.,
м
8 мая, сб
сб801:00+5зюз28805 0.2 1012197
04:00+4зюз2108323 0.0 1012288
07:00+6зсз51079100 0.2 1013849
10:00+8зсз51060100 0.3 10121678
13:00+7з4770100 0.4 10131157
16:00+8зсз5963100 0.3 10131454
19:00+7сз496469 0.4 10141403
22:00+4сз268193 0.1 1015340
9 мая, вс
вс901:00+1зсз28955 0.1 1016201
04:000сз26976 0.0 1017154
07:00+2ссз37845 0.0 1019255
10:00+8ссз455665 0.0 10191410
13:00+9с3550100 0.1 10201559
16:00+10с3544100 0.0 10211925
19:00+8с455823 0.0 10221186
22:00+3с258611 0.0 1024106
10 мая, пн
пн1001:00+4с267895 0.0 1024170
04:00+4с2472100 0.0 1025116
07:00+5ссв268191 0.0 1025308
10:00+10св365885 0.0 10251333
13:00+10всв3557100 0.0 10251311
16:00+12в254778 0.0 10231605
19:00+13св365191 0.0 1022866
22:00+7св27782 0.0 1022139
11 мая, вт
вт1101:00+5св298690 0.0 1022177
04:00+7св397591 0.0 1021328
07:00+7св387970 0.0 1021339
10:00+12св465811 0.0 1020811
13:00+15св564086 0.0 10192165
16:00+16св563490 0.0 10182339
19:00+15ссв4639100 0.0 10182069
22:00+11св31056100 0.0 1019428
12 мая, ср
ср1201:00+9св41068100 0.0 1019410
04:00+7всв3876100 0.0 1019339
07:00+7всв387376 0.0 1020475
10:00+11всв454916 0.0 10211205
13:00+14всв45355 0.0 10202023
16:00+15всв443114 0.0 10192269
19:00+14всв343424 0.0 10202132
22:00+8в22556 0.0 102236